CZ-4B DEB, 40532

Orbit data source: Space-Track

CZ-4B DEB, 40532 is space debris in LEO originally from a launch on Fri, 25 Oct 2013 UTC launched from the Jiuquan Satellite Launch Center, China (JSC). Debris objects in space refer to the collection of defunct objects orbiting the Earth. Examples of debris include non-operational satellites, rocket bodies, and fragments generated from explosions, collisions, or faulty payload assembly.

Loading next visibility...
Identifier
40532, 2013-057E
Orbit
LEO
Country
Flag of CNCN / PRC
Related business
Manufacturer
SAST
Mission
Spacecraft
Bus & Motor
Unknown
Mass
Unknown
Launch date (UTC)
2013-10-25 (13 years ago)
Launch vehicle
Unknown
Launch site
Jiuquan Satellite Launch Center, China (JSC)
Object type
Payload
Rocket body
Debris
Shape & HBR
Unknown shape, 0.1 m
Radar Cross Section
Small (<0.1 m²)

Expand to show TLE details & history
Last TLE update: 3 days ago

TLE from 3 days ago
0 CZ-4B DEB
1 40532U 13057E   26170.32984624  .00002339  00000-0  42072-3 0  9999
2 40532  74.8663 191.4446 0184154 314.9765  43.6597 14.56672395591802
Epoch: 2026-06-19T07:54Z
TLE epoch observation values (Epoch: 2026-06-19T07:54:58.715Z)
Latitude
0.00003°
Longitude
165.13959°
Altitude
613.423 km
Speed
7.602 km/s
True Right ascension
12h 45m 46s
True Declination
0° 00' 00"
Sunlit
Object was in daylight at epoch
Visualization orbit readout
Latitude
Unknown
Longitude
Unknown
Altitude
Unknown
Speed
Unknown
Apparent Right ascension
Unknown
Apparent Declination
Unknown
Sunlit
N/A
Visualization observer readout
Local Sidereal Time
21:35:23
Azimuth
Unknown
Elevation
Unknown
Doppler factor
Unknown
Orbital elements
Apogee altitude
831.843 km
Perigee altitude
571.095 km
Semi-major axis
7,079.606 km
Eccentricity
0.01842
Inclination
74.8663°
RAAN
191.4446°
Arg. of periapsis
314.9765°
True anomaly
45.14105°
Mean anomaly
43.6597°
Eccentric anomaly
44.3979°
Mean motion
3.64359 °/min
Orbital period
98.8 mins
BSTAR
0.00042072
Loading maneuver chart data...
Computing Atmospheric mass density...
Loading historical data...
Loading historical data...
Loading historical data...
Loading historical data...
Loading historical data...
Loading historical data...
Loading historical data...
Other satellites on launch #57 in the year 2013 (2013-10-25 UTC)

Documentation

Showing up to 5 results
|